Weather in Verkhneye Dubrovo

Russia / Sverdlovsk Oblast     56°45′09″N   61°02′39″E
temp.,
°C
wind,
m/s
gust,
m/s
humid.,
%
clouds,
%
prec.,
mm/h
press.,
hPa
HPBL,
m
5 march, fri
fri523:00−10ssw399145 0.0 997255
02:00−8s51190100 0.0 993474
05:00−6ssw61393100 0.5 990836
08:00−6wsw5148661 0.1 991872
11:00−4wsw7138178 0.1 9951025
14:00−3w7137555 0.0 9971098
17:00−4wsw497962 0.0 998995
20:00−9wsw3988100 0.0 1000206
6 march, sat
sat623:00−10w4119199 0.0 1002438
02:00−12w5139023 0.0 1004438
05:00−15w4119311 0.0 1007271
08:00−15wsw411910 0.0 1007321
11:00−9w611829 0.0 1008965
14:00−8w71277100 0.1 10081715
17:00−8w61179100 0.2 10081593
20:00−14w3108856 0.0 1010300
7 march, sun
sun723:00−17w339429 0.0 101268
02:00−19w23960 0.0 101221
05:00−20wsw129718 0.0 101220
08:00−20sw1197100 0.0 101120
11:00−13se118867 0.0 1010246
14:00−10e128598 0.0 1007479
17:00−10ene128699 0.1 1006482
20:00−13nnw2296100 0.1 100620
8 march, mon
mon823:00−15nw2397100 0.1 100755
02:00−19w379693 0.1 1008133
05:00−21w339747 0.1 100963
08:00−21sw239516 0.0 100838
11:00−14s369138 0.0 1007273
14:00−11sse5992100 0.2 1005464
17:00−10sse4891100 0.4 1002484
20:00−10sse31093100 0.1 1002298
9 march, tue
tue923:00−8wsw6148396 0.1 1004727
02:00−13sw359224 0.0 100689
05:00−13sse369362 0.0 1004125
08:00−11se51195100 0.9 998518
11:00−5sw81290100 3.8 9941157
14:00−7wsw5981100 0.3 9951135
17:00−7wnw71293100 0.9 10001148
20:00−10wnw51286100 0.4 1005761